COSMOS 342

Satellite information

Favourite Embed

Satellite Type and Status

PAYLOADIN ORBIT

Key statistics

Satellite COSMOS 342 at a glance.

Uptime

20173

Days in orbit

Revolutions

≈ 12.7

Per day

Orbit

LEO

Low Earth Orbit

Inclination

74.0

Latest

Satellite identification and parameters

Extended collection of information and parameters for COSMOS 342.

Object identification

Identified? True

Debris? False

Object name: COSMOS 342

International designator: 1970-036G

Object number (NORAD): 4389

Object ID (CCSDS): 4389

Country: COMMONWEALTH OF INDEPENDENT STATES (CIS)

Current information (Y/N): Y

RCS size: MEDIUM

Orbital parameters

Period: 113.535 minutes

Inclination: 74.0289 deg

SMA: 7766.881 km

Apoapsis: 1467.094 km

Periapsis: 1310.398 km

RAAN: 111.4626 deg

Eccentricy: 0.0100875

Argument of periapsis: 53.4961 deg

Mean anomaly: 62.1873 deg

Mean motion: 12.68331502 rev/day

Mean motion (dot): 0.00000001 rev/day2

B* drag term: 0.000089172 1/REarth

Two-line elements (TLE)

Creation date: July 17, 2025, 5:14 p.m.

Reference frame: TEME

Reference center: EARTH

Epoch: July 17, 2025, 5:48 a.m. UTC

TLE line 0: 0 COSMOS 342

TLE line 1: 1 04389U 70036G 25198.24168125 .00000001 00000-0 89172-4 0 9996

TLE line 2: 2 04389 74.0289 111.4626 0100875 53.4961 62.1873 12.68331502556651

Live tracking on map

Real-time ground track for satellite COSMOS 342.

In-orbit conjunctions

A list of the most updated potential collisions computed for object COSMOS 342.

Target Orbit TCA Probability of collision Miss distance Type
DELTA 1 DEB SSO 2024-09-20 05:57:54 0.0007874436 160.0 (m) DEBRIS

Associated space launch

Military communications satellites

COSMOS 342 was lifted into orbit during the mission ‘Kosmos-3M | Strela-1M 1-8’, on board a Kosmos-3M space rocket.

The launch took place on April 25, 1970, 5:09 p.m. from 132/2.

For more information about the launch, click the button.

Launch to space Kosmos-3M | Strela-1M 1-8
Kosmos-3M | Strela-1M 1-8

Agency: N/A

Status: Launch Successful

Launch date: April 25, 1970, 5:09 p.m. UTC

Rocket: Kosmos-3M

Launch pad: 132/2

Location: Plesetsk Cosmodrome, Russian Federation

...

Latest news about this satellite

There are no fresh news available about this satellite. Check back as we update our databases every day.


Newsletter sign-up

Weekly statistics, charts and insights to help you stay on top of the space industry.